Location: Anmer
(52.8333°N, 0.5833°E)
Time: 10:55:59
(UTC+00:00)

Cosmos 2322 - Pass Details

Date: 15 May 2026
Orbit: 840 x 853 km, 71.0° (Epoch: 8 June)

Event Time Altitude Azimuth Distance (km) Brightness Sun altitude
Rises 21:47:51 0° 329° (NNW) 3,430 9.0 -13.1°
Reaches altitude 10° 21:50:24 10° 334° (NNW) 2,489 7.6 -13.3°
Maximum altitude 21:55:59 52° 51° (NE) 1,045 4.2 -13.7°
Enters shadow 22:00:22 16° 124° (ESE) 2,060 5.2 -14.0°
